Regional Weather Roundup
Issued by NWS

Home | Current Version | Previous Version | Text Only | Print | Product List | Glossary Off
Versions: 1 2 3 4 5 6 7 8 9 10 11 12 13 14 15 16 17 18 19 20 21 22 23 24 25 26 27 28 29 30 31 32 33 34 35 36 37 38 39 40 41 42 43 44 45 46 47 48 49 50

000
ASUS43 KBIS 192110
RWRND

NORTH DAKOTA REGIONAL WEATHER ROUNDUP
NATIONAL WEATHER SERVICE BISMARCK ND
400 PM CDT SUN APR 19 2015

NOTE: "FAIR" INDICATES FEW OR NO CLOUDS BELOW 12,000 FEET WITH NO
SIGNIFICANT WEATHER AND/OR OBSTRUCTIONS TO VISIBILITY.


NDZ001>003-009>011-017-192200-
NORTHWEST NORTH DAKOTA

CITY           SKY/WX    TMP DP  RH WIND       PRES   REMARKS
WILLISTON      CLOUDY    50  26  39 N28G35    30.01F
MINOT          CLOUDY    45  32  60 NW23G30   29.88S
MINOT AFB      DRIZZLE   44  35  69 NW21G31   29.88S
$$

NDZ018>021-031>035-040>046-192200-
SOUTHWEST NORTH DAKOTA

CITY           SKY/WX    TMP DP  RH WIND       PRES   REMARKS
BISMARCK       PTSUNNY   50  34  54 NW26G38   29.88F
DICKINSON      CLOUDY    46  27  47 NW26G38   29.95F
GARRISON         N/A     46  32  58 NW30G37   29.90R
HETTINGER ARPT PTSUNNY   47  27  45 NW35G44   29.97S
$$

NDZ004>008-012>016-024-026-027-054-192200-
NORTHEAST NORTH DAKOTA

CITY           SKY/WX    TMP DP  RH WIND       PRES   REMARKS
GRAND FORKS    LGT RAIN  43  40  89 NW21G31   29.73S
GRND FRKS AFB  CLOUDY    43  39  87 NW14      29.73S
DEVILS LAKE    CLOUDY    43  34  70 N22G38    29.77R
$$

NDZ022-023-025-028>030-036>039-047>053-192200-
SOUTHEAST NORTH DAKOTA

CITY           SKY/WX    TMP DP  RH WIND       PRES   REMARKS
FARGO          LGT RAIN  46  39  76 NW29G35   29.73R
JAMESTOWN      CLOUDY    50  35  56 N26       29.76F
$$



USA.gov is the U.S. government's official web portal to all federal, state and local government web resources and services.